THOR ABLESTAR DEB, 327

Orbit data source: Space-Track

THOR ABLESTAR DEB, 327 is space debris in LEO originally from a launch on Thu, 29 Jun 1961 UTC launched from the Air Force Eastern Test Range (AFETR). Debris objects in space refer to the collection of defunct objects orbiting the Earth. Examples of debris include non-operational satellites, rocket bodies, and fragments generated from explosions, collisions, or faulty payload assembly.

Loading next visibility...
Identifier
327, 1961-015DD
Orbit
LEO
Country
Flag of USUS
Related business
Manufacturer
Unknown
Mission
Spacecraft
Bus & Motor
Unknown
Mass
Unknown
Launch date (UTC)
1961-06-29 (64 years ago)
Launch vehicle
Unknown
Launch site
Air Force Eastern Test Range (AFETR)
Object type
Payload
Rocket body
Debris
Shape & HBR
Unknown shape, 0.1 m
Radar Cross Section
Small (<0.1 m²)

Expand to show TLE details & history
Last TLE update: 11 hours ago

TLE from 11 hours ago
0 THOR ABLESTAR DEB
1 00327U 61015DD  25303.16571364  .00000287  00000-0  27604-3 0  9990
2 00327  66.5426 235.5037 0119601 281.1859  77.5793 13.90749325254754
Epoch: 2025-10-30T03:58Z
TLE epoch observation values (Epoch: 2025-10-30T03:58:37.658Z)
Latitude
0.00004°
Longitude
137.1184°
Altitude
910.271 km
Speed
7.406 km/s
True Right ascension
15h 42m 00s
True Declination
0° 00' 00"
Sunlit
Object was in daylight at epoch
Visualization orbit readout
Latitude
Unknown
Longitude
Unknown
Altitude
Unknown
Speed
Unknown
Apparent Right ascension
Unknown
Apparent Declination
Unknown
Sunlit
N/A
Visualization observer readout
Local Sidereal Time
10:48:19
Azimuth
Unknown
Elevation
Unknown
Doppler factor
Unknown
Orbital elements
Apogee altitude
1,011.768 km
Perigee altitude
837.089 km
Semi-major axis
7,302.566 km
Eccentricity
0.01196
Inclination
66.5426°
RAAN
235.5037°
Arg. of periapsis
281.1859°
True anomaly
78.92194°
Mean anomaly
77.5793°
Eccentric anomaly
78.2502°
Mean motion
3.478 °/min
Orbital period
103.51 mins
BSTAR
0.00027604
Loading maneuver chart data...
Computing Atmospheric mass density...

Documentation

Showing up to 5 results
|